Time,TemperatureF,DewpointF,PressureIn,WindDirection,WindDirectionDegrees,WindSpeedMPH,WindSpeedGustMPH,Humidity,HourlyPrecipIn,Conditions,Clouds,dailyrainin,SoftwareType,DateUTC
2014-01-13 00:00:00,35.2,-1.8,29.74,NNW,328,2.0,5.0,20,0.00,,,0.00,VWS V14.01,2014-01-13 06:00:00,
2014-01-13 00:05:00,34.9,-3.2,29.75,NW,325,1.0,3.0,19,0.00,,,0.00,VWS V14.01,2014-01-13 06:05:00,
2014-01-13 00:10:00,34.7,-2.3,29.75,NW,325,0.0,3.0,20,0.00,,,0.00,VWS V14.01,2014-01-13 06:10:00,
2014-01-13 00:15:00,34.6,-2.3,29.75,NW,325,0.0,3.0,20,0.00,,,0.00,VWS V14.01,2014-01-13 06:15:00,
2014-01-13 00:20:00,34.6,-0.3,29.74,NW,323,3.0,3.0,22,0.00,,,0.00,VWS V14.01,2014-01-13 06:20:00,
2014-01-13 00:25:00,34.4,1.4,29.74,NW,325,1.0,3.0,24,0.00,,,0.00,VWS V14.01,2014-01-13 06:25:00,
2014-01-13 00:30:00,34.6,1.5,29.74,NNW,332,1.0,5.0,24,0.00,,,0.00,VWS V14.01,2014-01-13 06:30:00,
2014-01-13 00:35:00,34.7,0.7,29.74,NNW,330,0.0,3.0,23,0.00,,,0.00,VWS V14.01,2014-01-13 06:35:00,
2014-01-13 00:40:00,35.0,0.0,29.74,NNW,330,0.0,3.0,22,0.00,,,0.00,VWS V14.01,2014-01-13 06:40:00,
2014-01-13 00:45:00,35.2,-0.8,29.74,NW,322,2.0,4.0,21,0.00,,,0.00,VWS V14.01,2014-01-13 06:45:00,
2014-01-13 00:50:00,35.3,-4.0,29.74,NW,325,2.0,5.0,18,0.00,,,0.00,VWS V14.01,2014-01-13 06:50:00,
2014-01-13 00:55:00,35.5,-6.2,29.74,NNW,328,1.0,7.0,16,0.00,,,0.00,VWS V14.01,2014-01-13 06:55:00,
2014-01-13 01:00:00,35.6,-10.4,29.74,NNW,333,2.0,7.0,13,0.00,,,0.00,VWS V14.01,2014-01-13 07:00:00,
2014-01-13 01:05:00,35.8,-11.8,29.74,NNW,342,2.0,7.0,12,0.00,,,0.00,VWS V14.01,2014-01-13 07:05:00,
2014-01-13 01:10:00,35.8,-13.6,29.74,NNW,335,2.0,7.0,11,0.00,,,0.00,VWS V14.01,2014-01-13 07:10:00,
2014-01-13 01:15:00,35.8,-13.6,29.74,NNW,336,0.0,7.0,11,0.00,,,0.00,VWS V14.01,2014-01-13 07:15:00,
2014-01-13 01:20:00,35.6,-13.7,29.74,NNW,329,1.0,5.0,11,0.00,,,0.00,VWS V14.01,2014-01-13 07:20:00,
2014-01-13 01:25:00,35.5,-15.7,29.74,NW,319,0.0,5.0,10,0.00,,,0.00,VWS V14.01,2014-01-13 07:25:00,
2014-01-13 01:30:00,35.5,-15.7,29.74,NNW,343,1.0,5.0,10,0.00,,,0.00,VWS V14.01,2014-01-13 07:30:00,
2014-01-13 01:35:00,35.5,-17.8,29.74,NW,323,4.0,5.0,9,0.00,,,0.00,VWS V14.01,2014-01-13 07:35:00,
2014-01-13 01:40:00,35.3,-17.9,29.74,NNW,333,2.0,6.0,9,0.00,,,0.00,VWS V14.01,2014-01-13 07:40:00,
2014-01-13 01:45:00,35.3,-14.0,29.74,NW,318,2.0,10.0,11,0.00,,,0.00,VWS V14.01,2014-01-13 07:45:00,
2014-01-13 01:50:00,35.2,-15.9,29.75,NNW,332,3.0,6.0,10,0.00,,,0.00,VWS V14.01,2014-01-13 07:50:00,
2014-01-13 01:55:00,35.0,-16.1,29.75,NW,315,2.0,8.0,10,0.00,,,0.00,VWS V14.01,2014-01-13 07:55:00,
2014-01-13 02:00:00,34.9,-14.3,29.75,NNW,329,2.0,8.0,11,0.00,,,0.00,VWS V14.01,2014-01-13 08:00:00,
2014-01-13 02:05:00,34.7,-16.3,29.75,NNW,328,3.0,7.0,10,0.00,,,0.00,VWS V14.01,2014-01-13 08:05:00,
2014-01-13 02:10:00,34.6,-16.4,29.75,NNW,343,2.0,7.0,10,0.00,,,0.00,VWS V14.01,2014-01-13 08:10:00,
2014-01-13 02:15:00,34.4,-16.5,29.75,NNW,332,2.0,7.0,10,0.00,,,0.00,VWS V14.01,2014-01-13 08:15:00,
2014-01-13 02:20:00,34.4,-18.6,29.76,NW,320,2.0,6.0,9,0.00,,,0.00,VWS V14.01,2014-01-13 08:20:00,
2014-01-13 02:26:00,34.4,-23.4,29.76,NW,326,3.0,6.0,7,0.00,,,0.00,VWS V14.01,2014-01-13 08:26:00,
2014-01-13 02:31:00,34.6,-29.5,29.76,NNW,329,5.0,6.0,5,0.00,,,0.00,VWS V14.01,2014-01-13 08:31:00,
2014-01-13 02:36:00,34.6,-26.1,29.76,NNW,337,7.0,7.0,6,0.00,,,0.00,VWS V14.01,2014-01-13 08:36:00,
2014-01-13 02:40:00,34.7,-29.4,29.76,North,359,5.0,7.0,5,0.00,,,0.00,VWS V14.01,2014-01-13 08:40:00,
2014-01-13 02:46:00,34.9,-29.3,29.76,NNW,347,5.0,7.0,5,0.00,,,0.00,VWS V14.01,2014-01-13 08:46:00,
2014-01-13 02:50:00,34.7,-23.2,29.77,North,352,6.0,13.0,7,0.00,,,0.00,VWS V14.01,2014-01-13 08:50:00,
2014-01-13 02:56:00,34.6,-20.7,29.77,North,352,3.0,13.0,8,0.00,,,0.00,VWS V14.01,2014-01-13 08:56:00,
2014-01-13 03:00:00,34.0,-15.0,29.77,North,354,6.0,13.0,11,0.00,,,0.00,VWS V14.01,2014-01-13 09:00:00,
2014-01-13 03:05:00,33.5,-10.6,29.78,North,359,2.0,7.0,14,0.00,,,0.00,VWS V14.01,2014-01-13 09:05:00,
2014-01-13 03:10:00,32.8,-7.2,29.78,NNW,342,3.0,7.0,17,0.00,,,0.00,VWS V14.01,2014-01-13 09:10:00,
2014-01-13 03:15:00,32.2,-4.3,29.78,North,0,5.0,7.0,20,0.00,,,0.00,VWS V14.01,2014-01-13 09:15:00,
2014-01-13 03:20:00,31.6,-2.9,29.80,North,359,3.0,6.0,22,0.00,,,0.00,VWS V14.01,2014-01-13 09:20:00,
2014-01-13 03:25:00,31.3,-1.3,29.80,North,357,2.0,6.0,24,0.00,,,0.00,VWS V14.01,2014-01-13 09:25:00,
2014-01-13 03:30:00,30.9,-0.8,29.80,North,357,0.0,6.0,25,0.00,,,0.00,VWS V14.01,2014-01-13 09:30:00,
2014-01-13 03:35:00,30.3,1.1,29.80,North,357,0.0,1.0,28,0.00,,,0.00,VWS V14.01,2014-01-13 09:35:00,
2014-01-13 03:40:00,30.0,0.9,29.80,North,357,0.0,1.0,28,0.00,,,0.00,VWS V14.01,2014-01-13 09:40:00,
2014-01-13 03:45:00,29.7,1.4,29.80,North,357,0.0,2.0,29,0.00,,,0.00,VWS V14.01,2014-01-13 09:45:00,
2014-01-13 03:50:00,29.7,0.6,29.81,North,352,2.0,5.0,28,0.00,,,0.00,VWS V14.01,2014-01-13 09:50:00,
2014-01-13 03:55:00,30.6,-3.7,29.81,North,0,1.0,6.0,22,0.00,,,0.00,VWS V14.01,2014-01-13 09:55:00,
2014-01-13 04:00:00,31.2,-9.8,29.81,North,357,2.0,6.0,16,0.00,,,0.00,VWS V14.01,2014-01-13 10:00:00,
2014-01-13 04:05:00,32.1,-14.8,29.81,NNW,347,3.0,8.0,12,0.00,,,0.00,VWS V14.01,2014-01-13 10:05:00,
2014-01-13 04:10:00,32.5,-20.1,29.81,NW,309,2.0,8.0,9,0.00,,,0.00,VWS V14.01,2014-01-13 10:10:00,
2014-01-13 04:15:00,32.7,-22.2,29.81,NNW,339,3.0,14.0,8,0.00,,,0.00,VWS V14.01,2014-01-13 10:15:00,
2014-01-13 04:20:00,32.5,-20.1,29.82,NNW,332,2.0,11.0,9,0.00,,,0.00,VWS V14.01,2014-01-13 10:20:00,
2014-01-13 04:26:00,32.2,-20.3,29.82,North,356,3.0,11.0,9,0.00,,,0.00,VWS V14.01,2014-01-13 10:26:00,
2014-01-13 04:30:00,32.1,-16.5,29.82,North,349,5.0,11.0,11,0.00,,,0.00,VWS V14.01,2014-01-13 10:30:00,
2014-01-13 04:36:00,31.9,-16.6,29.83,NNW,343,5.0,7.0,11,0.00,,,0.00,VWS V14.01,2014-01-13 10:36:00,
2014-01-13 04:41:00,31.9,-18.5,29.83,NNW,347,3.0,10.0,10,0.00,,,0.00,VWS V14.01,2014-01-13 10:41:00,
2014-01-13 04:46:00,32.1,-22.6,29.83,North,354,7.0,10.0,8,0.00,,,0.00,VWS V14.01,2014-01-13 10:46:00,
2014-01-13 04:51:00,31.9,-20.5,29.83,NW,322,5.0,10.0,9,0.00,,,0.00,VWS V14.01,2014-01-13 10:51:00,
2014-01-13 04:56:00,31.8,-18.6,29.83,North,352,5.0,10.0,10,0.00,,,0.00,VWS V14.01,2014-01-13 10:56:00,
2014-01-13 05:01:00,31.6,-16.9,29.83,NNW,337,4.0,10.0,11,0.00,,,0.00,VWS V14.01,2014-01-13 11:01:00,
2014-01-13 05:06:00,31.5,-17.0,29.83,NNW,335,3.0,5.0,11,0.00,,,0.00,VWS V14.01,2014-01-13 11:06:00,
2014-01-13 05:11:00,31.3,-15.4,29.83,North,359,2.0,10.0,12,0.00,,,0.00,VWS V14.01,2014-01-13 11:11:00,
2014-01-13 05:16:00,31.2,-15.5,29.83,NNW,333,2.0,10.0,12,0.00,,,0.00,VWS V14.01,2014-01-13 11:16:00,
2014-01-13 05:21:00,30.9,-14.2,29.83,NNW,342,5.0,7.0,13,0.00,,,0.00,VWS V14.01,2014-01-13 11:21:00,
2014-01-13 05:26:00,30.6,-11.6,29.83,North,359,2.0,7.0,15,0.00,,,0.00,VWS V14.01,2014-01-13 11:26:00,
2014-01-13 05:31:00,30.4,-10.4,29.83,NNW,346,2.0,7.0,16,0.00,,,0.00,VWS V14.01,2014-01-13 11:31:00,
2014-01-13 05:36:00,30.1,-9.4,29.83,NNW,340,2.0,5.0,17,0.00,,,0.00,VWS V14.01,2014-01-13 11:36:00,
2014-01-13 05:41:00,30.0,-8.4,29.83,NNW,337,5.0,5.0,18,0.00,,,0.00,VWS V14.01,2014-01-13 11:41:00,
2014-01-13 05:46:00,29.7,-8.6,29.83,NNW,343,2.0,6.0,18,0.00,,,0.00,VWS V14.01,2014-01-13 11:46:00,
2014-01-13 05:51:00,29.5,-7.7,29.84,NNW,343,1.0,2.0,19,0.00,,,0.00,VWS V14.01,2014-01-13 11:51:00,
2014-01-13 05:56:00,29.4,-7.8,29.84,NNW,343,0.0,2.0,19,0.00,,,0.00,VWS V14.01,2014-01-13 11:56:00,
2014-01-13 06:01:00,29.3,-7.8,29.84,NNW,342,0.0,3.0,19,0.00,,,0.00,VWS V14.01,2014-01-13 12:01:00,
2014-01-13 06:06:00,29.1,-6.9,29.83,NNW,342,0.0,0.0,20,0.00,,,0.00,VWS V14.01,2014-01-13 12:06:00,
2014-01-13 06:11:00,28.8,-6.2,29.83,NNW,342,0.0,0.0,21,0.00,,,0.00,VWS V14.01,2014-01-13 12:11:00,
2014-01-13 06:16:00,28.7,-6.3,29.83,NNW,342,2.0,2.0,21,0.00,,,0.00,VWS V14.01,2014-01-13 12:16:00,
2014-01-13 06:21:00,28.4,-5.6,29.84,NNW,342,2.0,3.0,22,0.00,,,0.00,VWS V14.01,2014-01-13 12:21:00,
2014-01-13 06:26:00,28.2,-3.1,29.84,NNW,342,1.0,3.0,25,0.00,,,0.00,VWS V14.01,2014-01-13 12:26:00,
2014-01-13 06:31:00,27.6,-1.2,29.84,NNW,342,0.0,3.0,28,0.00,,,0.00,VWS V14.01,2014-01-13 12:31:00,
2014-01-13 06:36:00,27.0,1.1,29.85,NNW,342,0.0,2.0,32,0.00,,,0.00,VWS V14.01,2014-01-13 12:36:00,
2014-01-13 06:41:00,26.7,-0.6,29.85,NNW,342,0.0,2.0,30,0.00,,,0.00,VWS V14.01,2014-01-13 12:41:00,
2014-01-13 06:46:00,26.9,-3.4,29.85,NNW,342,0.0,2.0,26,0.00,,,0.00,VWS V14.01,2014-01-13 12:46:00,
2014-01-13 06:51:00,27.2,-5.7,29.85,NNW,342,0.0,0.0,23,0.00,,,0.00,VWS V14.01,2014-01-13 12:51:00,
2014-01-13 06:56:00,27.3,-6.5,29.85,NNW,342,0.0,0.0,22,0.00,,,0.00,VWS V14.01,2014-01-13 12:56:00,
2014-01-13 07:01:00,27.2,-4.8,29.85,NNW,342,0.0,0.0,24,0.00,,,0.00,VWS V14.01,2014-01-13 13:01:00,
2014-01-13 07:06:00,26.4,-2.3,29.85,NNW,342,2.0,3.0,28,0.00,,,0.00,VWS V14.01,2014-01-13 13:06:00,
2014-01-13 07:11:00,25.7,1.2,29.85,NNW,342,0.0,3.0,34,0.00,,,0.00,VWS V14.01,2014-01-13 13:11:00,
2014-01-13 07:16:00,25.1,2.5,29.85,NNW,340,1.0,3.0,37,0.00,,,0.00,VWS V14.01,2014-01-13 13:16:00,
2014-01-13 07:21:00,24.8,2.2,29.86,NNW,340,0.0,1.0,37,0.00,,,0.00,VWS V14.01,2014-01-13 13:21:00,
2014-01-13 07:26:00,24.8,2.8,29.86,NNW,340,1.0,2.0,38,0.00,,,0.00,VWS V14.01,2014-01-13 13:26:00,
2014-01-13 07:31:00,24.8,-1.5,29.86,NNW,340,2.0,3.0,31,0.00,,,0.00,VWS V14.01,2014-01-13 13:31:00,
2014-01-13 07:36:00,24.8,1.0,29.86,NNW,340,0.0,2.0,35,0.00,,,0.00,VWS V14.01,2014-01-13 13:36:00,
2014-01-13 07:41:00,25.0,-0.7,29.86,NNW,340,0.0,2.0,32,0.00,,,0.00,VWS V14.01,2014-01-13 13:41:00,
2014-01-13 07:46:00,25.3,-2.5,29.86,NNW,340,0.0,2.0,29,0.00,,,0.00,VWS V14.01,2014-01-13 13:46:00,
2014-01-13 07:51:00,25.4,-3.1,29.85,NNW,340,2.0,2.0,28,0.00,,,0.00,VWS V14.01,2014-01-13 13:51:00,
2014-01-13 07:56:00,25.8,-3.6,29.85,NNW,340,1.0,3.0,27,0.00,,,0.00,VWS V14.01,2014-01-13 13:56:00,
2014-01-13 08:01:00,25.8,-2.8,29.85,NNW,340,2.0,3.0,28,0.00,,,0.00,VWS V14.01,2014-01-13 14:01:00,
2014-01-13 08:06:00,25.4,1.0,29.85,NNW,340,2.0,3.0,34,0.00,,,0.00,VWS V14.01,2014-01-13 14:06:00,
2014-01-13 08:11:00,25.0,1.2,29.85,NNW,340,2.0,4.0,35,0.00,,,0.00,VWS V14.01,2014-01-13 14:11:00,
2014-01-13 08:16:00,25.0,0.0,29.85,NNW,333,5.0,5.0,33,0.00,,,0.00,VWS V14.01,2014-01-13 14:16:00,
2014-01-13 08:21:00,24.8,-1.5,29.86,NNW,333,5.0,5.0,31,0.00,,,0.00,VWS V14.01,2014-01-13 14:21:00,
2014-01-13 08:26:00,24.5,0.2,29.86,NNW,329,2.0,5.0,34,0.00,,,0.00,VWS V14.01,2014-01-13 14:26:00,
2014-01-13 08:31:00,24.4,1.3,29.86,NNW,329,1.0,5.0,36,0.00,,,0.00,VWS V14.01,2014-01-13 14:31:00,
2014-01-13 08:36:00,24.8,-2.9,29.86,WSW,237,5.0,7.0,29,0.00,,,0.00,VWS V14.01,2014-01-13 14:36:00,
2014-01-13 08:41:00,25.6,-6.2,29.86,SW,236,2.0,7.0,24,0.00,,,0.00,VWS V14.01,2014-01-13 14:41:00,
2014-01-13 08:46:00,25.3,-2.5,29.86,SW,230,5.0,7.0,29,0.00,,,0.00,VWS V14.01,2014-01-13 14:46:00,
2014-01-13 08:51:00,24.7,-0.3,29.86,SW,230,3.0,5.0,33,0.00,,,0.00,VWS V14.01,2014-01-13 14:51:00,
2014-01-13 08:56:00,24.4,2.5,29.86,SW,230,3.0,5.0,38,0.00,,,0.00,VWS V14.01,2014-01-13 14:56:00,
2014-01-13 09:01:00,24.5,2.0,29.86,SW,234,6.0,7.0,37,0.00,,,0.00,VWS V14.01,2014-01-13 15:01:00,
2014-01-13 09:06:00,25.0,-0.7,29.87,WSW,237,2.0,7.0,32,0.00,,,0.00,VWS V14.01,2014-01-13 15:06:00,
2014-01-13 09:11:00,25.3,-1.8,29.87,WSW,243,5.0,7.0,30,0.00,,,0.00,VWS V14.01,2014-01-13 15:11:00,
2014-01-13 09:16:00,25.7,-2.2,29.87,WSW,241,5.0,7.0,29,0.00,,,0.00,VWS V14.01,2014-01-13 15:16:00,
2014-01-13 09:21:00,26.3,-2.4,29.89,WSW,244,5.0,8.0,28,0.00,,,0.00,VWS V14.01,2014-01-13 15:21:00,
2014-01-13 09:26:00,26.9,-4.2,29.89,WSW,248,4.0,8.0,25,0.00,,,0.00,VWS V14.01,2014-01-13 15:26:00,
2014-01-13 09:31:00,27.8,-5.2,29.89,WSW,240,5.0,8.0,23,0.00,,,0.00,VWS V14.01,2014-01-13 15:31:00,
2014-01-13 09:36:00,28.7,-9.4,29.88,WSW,241,5.0,7.0,18,0.00,,,0.00,VWS V14.01,2014-01-13 15:36:00,
2014-01-13 09:41:00,29.7,-20.2,29.88,WSW,246,5.0,8.0,10,0.00,,,0.00,VWS V14.01,2014-01-13 15:41:00,
2014-01-13 09:46:00,30.6,-29.1,29.88,WSW,254,7.0,11.0,6,0.00,,,0.00,VWS V14.01,2014-01-13 15:46:00,
2014-01-13 09:51:00,31.0,-28.8,29.87,WSW,246,5.0,7.0,6,0.00,,,0.00,VWS V14.01,2014-01-13 15:51:00,
2014-01-13 09:56:00,31.3,-35.9,29.87,WSW,254,5.0,10.0,4,0.00,,,0.00,VWS V14.01,2014-01-13 15:56:00,
2014-01-13 10:01:00,31.9,0.0,29.87,WSW,258,5.0,10.0,0,0.00,,,0.00,VWS V14.01,2014-01-13 16:01:00,
2014-01-13 10:06:00,32.2,0.0,29.87,West,270,5.0,9.0,0,0.00,,,0.00,VWS V14.01,2014-01-13 16:06:00,
2014-01-13 10:11:00,32.8,0.0,29.87,WSW,256,4.0,9.0,0,0.00,,,0.00,VWS V14.01,2014-01-13 16:11:00,
2014-01-13 10:16:00,33.5,0.0,29.87,WSW,253,5.0,9.0,0,0.00,,,0.00,VWS V14.01,2014-01-13 16:16:00,
2014-01-13 10:21:00,34.6,0.0,29.86,WSW,256,5.0,12.0,0,0.00,,,0.00,VWS V14.01,2014-01-13 16:21:00,
2014-01-13 10:26:00,35.6,0.0,29.86,WSW,250,7.0,12.0,0,0.00,,,0.00,VWS V14.01,2014-01-13 16:26:00,
2014-01-13 10:31:00,36.3,0.0,29.86,West,270,2.0,12.0,0,0.00,,,0.00,VWS V14.01,2014-01-13 16:31:00,
2014-01-13 10:36:00,37.0,37.0,29.85,West,265,5.0,12.0,100,0.00,,,0.00,VWS V14.01,2014-01-13 16:36:00,
2014-01-13 10:41:00,37.2,37.2,29.85,WSW,254,7.0,12.0,100,0.00,,,0.00,VWS V14.01,2014-01-13 16:41:00,
2014-01-13 10:46:00,37.3,37.3,29.85,WSW,251,10.0,12.0,100,0.00,,,0.00,VWS V14.01,2014-01-13 16:46:00,
2014-01-13 10:51:00,37.5,37.5,29.84,West,263,4.0,13.0,100,0.00,,,0.00,VWS V14.01,2014-01-13 16:51:00,
2014-01-13 10:56:00,38.0,38.0,29.84,WSW,254,7.0,13.0,100,0.00,,,0.00,VWS V14.01,2014-01-13 16:56:00,
2014-01-13 11:01:00,38.6,38.6,29.84,WNW,287,7.0,13.0,100,0.00,,,0.00,VWS V14.01,2014-01-13 17:01:00,
2014-01-13 11:06:00,39.3,39.3,29.83,West,270,6.0,11.0,100,0.00,,,0.00,VWS V14.01,2014-01-13 17:06:00,
2014-01-13 11:11:00,39.9,39.9,29.83,WSW,251,4.0,11.0,100,0.00,,,0.00,VWS V14.01,2014-01-13 17:11:00,
2014-01-13 11:16:00,40.8,40.8,29.83,WSW,247,7.0,12.0,100,0.00,,,0.00,VWS V14.01,2014-01-13 17:16:00,
2014-01-13 11:21:00,41.1,41.1,29.82,WSW,253,5.0,13.0,100,0.00,,,0.00,VWS V14.01,2014-01-13 17:21:00,
2014-01-13 11:26:00,41.5,41.5,29.82,WSW,251,13.0,13.0,100,0.00,,,0.00,VWS V14.01,2014-01-13 17:26:00,
2014-01-13 11:31:00,41.8,41.8,29.82,West,261,5.0,13.0,100,0.00,,,0.00,VWS V14.01,2014-01-13 17:31:00,
2014-01-13 11:36:00,41.6,41.6,29.81,West,280,7.0,11.0,100,0.00,,,0.00,VWS V14.01,2014-01-13 17:36:00,
2014-01-13 11:41:00,41.5,41.5,29.81,WNW,284,2.0,13.0,100,0.00,,,0.00,VWS V14.01,2014-01-13 17:41:00,
2014-01-13 11:46:00,41.5,41.5,29.81,WSW,256,10.0,13.0,100,0.00,,,0.00,VWS V14.01,2014-01-13 17:46:00,
2014-01-13 11:51:00,41.1,41.1,29.81,West,274,7.0,12.0,100,0.00,,,0.00,VWS V14.01,2014-01-13 17:51:00,
2014-01-13 11:56:00,40.9,40.9,29.81,WSW,250,3.0,12.0,100,0.00,,,0.00,VWS V14.01,2014-01-13 17:56:00,
2014-01-13 12:01:00,40.9,40.9,29.81,WSW,258,8.0,12.0,100,0.00,,,0.00,VWS V14.01,2014-01-13 18:01:00,
2014-01-13 12:06:00,41.5,41.5,29.80,West,265,5.0,11.0,100,0.00,,,0.00,VWS V14.01,2014-01-13 18:06:00,
2014-01-13 12:11:00,41.6,41.6,29.80,West,265,6.0,12.0,100,0.00,,,0.00,VWS V14.01,2014-01-13 18:11:00,
2014-01-13 12:16:00,41.8,41.8,29.80,West,263,5.0,13.0,100,0.00,,,0.00,VWS V14.01,2014-01-13 18:16:00,
2014-01-13 12:21:00,42.2,42.2,29.78,West,271,5.0,10.0,100,0.00,,,0.00,VWS V14.01,2014-01-13 18:21:00,
2014-01-13 12:26:00,42.6,42.6,29.78,West,277,6.0,13.0,100,0.00,,,0.00,VWS V14.01,2014-01-13 18:26:00,
2014-01-13 12:31:00,43.1,43.1,29.78,WSW,253,6.0,13.0,100,0.00,,,0.00,VWS V14.01,2014-01-13 18:31:00,
2014-01-13 12:36:00,43.5,43.5,29.76,WNW,282,5.0,17.0,100,0.00,,,0.00,VWS V14.01,2014-01-13 18:36:00,
2014-01-13 12:41:00,43.6,43.6,29.76,WSW,256,6.0,17.0,100,0.00,,,0.00,VWS V14.01,2014-01-13 18:41:00,
2014-01-13 12:46:00,44.1,44.1,29.76,WSW,244,16.0,17.0,100,0.00,,,0.00,VWS V14.01,2014-01-13 18:46:00,
2014-01-13 12:51:00,44.5,44.5,29.75,West,277,5.0,13.0,100,0.00,,,0.00,VWS V14.01,2014-01-13 18:51:00,
2014-01-13 12:56:00,44.3,44.3,29.75,WSW,258,10.0,13.0,100,0.00,,,0.00,VWS V14.01,2014-01-13 18:56:00,
2014-01-13 13:01:00,44.8,44.8,29.75,WSW,254,10.0,17.0,100,0.00,,,0.00,VWS V14.01,2014-01-13 19:01:00,
2014-01-13 13:06:00,45.2,45.2,29.73,WSW,248,7.0,14.0,100,0.00,,,0.00,VWS V14.01,2014-01-13 19:06:00,
2014-01-13 13:11:00,45.7,45.7,29.73,WNW,285,7.0,14.0,100,0.00,,,0.00,VWS V14.01,2014-01-13 19:11:00,
2014-01-13 13:16:00,46.0,46.0,29.73,West,263,10.0,14.0,100,0.00,,,0.00,VWS V14.01,2014-01-13 19:16:00,
2014-01-13 13:21:00,46.1,46.1,29.72,West,263,8.0,18.0,100,0.00,,,0.00,VWS V14.01,2014-01-13 19:21:00,
2014-01-13 13:26:00,46.2,46.2,29.72,West,275,5.0,19.0,100,0.00,,,0.00,VWS V14.01,2014-01-13 19:26:00,
2014-01-13 13:31:00,46.8,46.8,29.72,West,265,6.0,19.0,100,0.00,,,0.00,VWS V14.01,2014-01-13 19:31:00,
2014-01-13 13:36:00,46.7,46.7,29.71,West,272,3.0,12.0,100,0.00,,,0.00,VWS V14.01,2014-01-13 19:36:00,
2014-01-13 13:41:00,47.3,47.3,29.71,West,275,5.0,12.0,100,0.00,,,0.00,VWS V14.01,2014-01-13 19:41:00,
2014-01-13 13:46:00,47.9,47.9,29.71,WSW,243,5.0,14.0,100,0.00,,,0.00,VWS V14.01,2014-01-13 19:46:00,
2014-01-13 13:51:00,47.6,47.6,29.70,WNW,282,7.0,13.0,100,0.00,,,0.00,VWS V14.01,2014-01-13 19:51:00,
2014-01-13 13:56:00,48.3,48.3,29.70,WNW,282,12.0,13.0,100,0.00,,,0.00,VWS V14.01,2014-01-13 19:56:00,
2014-01-13 14:01:00,48.6,48.6,29.70,West,265,6.0,13.0,100,0.00,,,0.00,VWS V14.01,2014-01-13 20:01:00,
2014-01-13 14:06:00,49.1,49.1,29.69,WSW,246,7.0,12.0,100,0.00,,,0.00,VWS V14.01,2014-01-13 20:06:00,
2014-01-13 14:11:00,49.5,49.5,29.69,West,281,7.0,12.0,100,0.00,,,0.00,VWS V14.01,2014-01-13 20:11:00,
2014-01-13 14:16:00,50.2,50.2,29.69,West,281,10.0,19.0,100,0.00,,,0.00,VWS V14.01,2014-01-13 20:16:00,
2014-01-13 14:21:00,50.2,50.2,29.69,West,278,2.0,10.0,100,0.00,,,0.00,VWS V14.01,2014-01-13 20:21:00,
2014-01-13 14:26:00,49.9,49.9,29.69,WNW,291,9.0,12.0,100,0.00,,,0.00,VWS V14.01,2014-01-13 20:26:00,
2014-01-13 14:31:00,49.5,49.5,29.69,WNW,282,5.0,17.0,100,0.00,,,0.00,VWS V14.01,2014-01-13 20:31:00,
2014-01-13 14:36:00,49.6,49.6,29.68,West,278,2.0,10.0,100,0.00,,,0.00,VWS V14.01,2014-01-13 20:36:00,
2014-01-13 14:41:00,50.4,50.4,29.68,NW,308,5.0,14.0,100,0.00,,,0.00,VWS V14.01,2014-01-13 20:41:00,
2014-01-13 14:46:00,50.8,50.8,29.68,West,280,6.0,16.0,100,0.00,,,0.00,VWS V14.01,2014-01-13 20:46:00,
2014-01-13 14:51:00,51.3,51.3,29.68,West,281,11.0,12.0,100,0.00,,,0.00,VWS V14.01,2014-01-13 20:51:00,
2014-01-13 14:56:00,51.6,51.6,29.68,West,277,8.0,12.0,100,0.00,,,0.00,VWS V14.01,2014-01-13 20:56:00,
2014-01-13 15:01:00,51.1,51.1,29.68,West,274,8.0,14.0,100,0.00,,,0.00,VWS V14.01,2014-01-13 21:01:00,
2014-01-13 15:06:00,51.1,51.1,29.69,West,270,8.0,12.0,100,0.00,,,0.00,VWS V14.01,2014-01-13 21:06:00,
2014-01-13 15:10:00,51.0,51.0,29.69,West,280,2.0,13.0,100,0.00,,,0.00,VWS V14.01,2014-01-13 21:10:00,
2014-01-13 15:15:00,50.7,50.7,29.69,West,275,10.0,14.0,100,0.00,,,0.00,VWS V14.01,2014-01-13 21:15:00,
2014-01-13 15:20:00,50.8,50.8,29.70,WNW,285,4.0,7.0,100,0.00,,,0.00,VWS V14.01,2014-01-13 21:20:00,
2014-01-13 15:25:00,51.0,51.0,29.70,WNW,296,5.0,12.0,100,0.00,,,0.00,VWS V14.01,2014-01-13 21:25:00,
2014-01-13 15:30:00,50.7,50.7,29.70,WNW,291,8.0,14.0,100,0.00,,,0.00,VWS V14.01,2014-01-13 21:30:00,
2014-01-13 15:35:00,50.5,50.5,29.70,West,280,7.0,10.0,100,0.00,,,0.00,VWS V14.01,2014-01-13 21:35:00,
2014-01-13 15:40:00,50.8,50.8,29.70,NW,326,4.0,13.0,100,0.00,,,0.00,VWS V14.01,2014-01-13 21:40:00,
2014-01-13 15:45:00,51.1,51.1,29.70,West,280,10.0,13.0,100,0.00,,,0.00,VWS V14.01,2014-01-13 21:45:00,
2014-01-13 15:50:00,51.1,51.1,29.70,NW,313,8.0,12.0,100,0.00,,,0.00,VWS V14.01,2014-01-13 21:50:00,
2014-01-13 15:55:00,51.3,51.3,29.70,WNW,295,10.0,12.0,100,0.00,,,0.00,VWS V14.01,2014-01-13 21:55:00,
2014-01-13 16:00:00,51.4,51.4,29.70,NW,320,7.0,12.0,100,0.00,,,0.00,VWS V14.01,2014-01-13 22:00:00,
2014-01-13 16:05:00,51.9,51.9,29.70,WNW,291,7.0,12.0,100,0.00,,,0.00,VWS V14.01,2014-01-13 22:05:00,
2014-01-13 16:10:00,52.0,52.0,29.70,NNW,346,3.0,16.0,100,0.00,,,0.00,VWS V14.01,2014-01-13 22:10:00,
2014-01-13 16:15:00,52.2,52.2,29.70,NW,306,8.0,16.0,100,0.00,,,0.00,VWS V14.01,2014-01-13 22:15:00,
2014-01-13 16:20:00,52.0,52.0,29.70,NW,304,8.0,12.0,100,0.00,,,0.00,VWS V14.01,2014-01-13 22:20:00,
2014-01-13 16:25:00,51.9,51.9,29.70,NW,309,5.0,14.0,100,0.00,,,0.00,VWS V14.01,2014-01-13 22:25:00,
2014-01-13 16:30:00,51.9,51.9,29.70,NW,326,10.0,14.0,100,0.00,,,0.00,VWS V14.01,2014-01-13 22:30:00,
2014-01-13 16:35:00,51.7,51.7,29.70,WNW,288,7.0,10.0,100,0.00,,,0.00,VWS V14.01,2014-01-13 22:35:00,
2014-01-13 16:40:00,51.4,51.4,29.70,NW,308,7.0,12.0,100,0.00,,,0.00,VWS V14.01,2014-01-13 22:40:00,
2014-01-13 16:45:00,51.1,51.1,29.70,North,0,2.0,14.0,100,0.00,,,0.00,VWS V14.01,2014-01-13 22:45:00,
2014-01-13 16:50:00,50.7,50.7,29.71,NW,304,3.0,10.0,100,0.00,,,0.00,VWS V14.01,2014-01-13 22:50:00,
2014-01-13 16:55:00,50.4,50.4,29.71,NW,316,5.0,10.0,100,0.00,,,0.00,VWS V14.01,2014-01-13 22:55:00,
2014-01-13 17:00:00,49.9,49.9,29.71,NW,305,2.0,10.0,100,0.00,,,0.00,VWS V14.01,2014-01-13 23:00:00,
2014-01-13 17:05:00,49.8,49.8,29.71,NNW,332,3.0,7.0,100,0.00,,,0.00,VWS V14.01,2014-01-13 23:05:00,
2014-01-13 17:10:00,49.4,49.4,29.71,NNW,347,0.0,7.0,100,0.00,,,0.00,VWS V14.01,2014-01-13 23:10:00,
2014-01-13 17:15:00,49.1,49.1,29.71,NNW,346,0.0,7.0,100,0.00,,,0.00,VWS V14.01,2014-01-13 23:15:00,
2014-01-13 17:20:00,48.6,48.6,29.73,NNW,343,5.0,5.0,100,0.00,,,0.00,VWS V14.01,2014-01-13 23:20:00,
2014-01-13 17:25:00,48.3,48.3,29.73,North,359,0.0,7.0,100,0.00,,,0.00,VWS V14.01,2014-01-13 23:25:00,
2014-01-13 17:30:00,47.9,47.9,29.73,North,356,2.0,7.0,100,0.00,,,0.00,VWS V14.01,2014-01-13 23:30:00,
2014-01-13 17:35:00,47.4,47.4,29.73,North,356,0.0,2.0,100,0.00,,,0.00,VWS V14.01,2014-01-13 23:35:00,
2014-01-13 17:40:00,47.0,47.0,29.73,North,356,1.0,3.0,100,0.00,,,0.00,VWS V14.01,2014-01-13 23:40:00,
2014-01-13 17:45:00,46.4,46.4,29.73,North,352,2.0,4.0,100,0.00,,,0.00,VWS V14.01,2014-01-13 23:45:00,
2014-01-13 17:50:00,46.0,46.0,29.74,North,350,2.0,4.0,100,0.00,,,0.00,VWS V14.01,2014-01-13 23:50:00,
2014-01-13 17:55:00,45.5,45.5,29.74,NNW,343,2.0,4.0,100,0.00,,,0.00,VWS V14.01,2014-01-13 23:55:00,
2014-01-13 18:00:00,45.2,45.2,29.74,NNW,343,3.0,5.0,100,0.00,,,0.00,VWS V14.01,2014-01-14 00:00:00,
2014-01-13 18:05:00,45.2,45.2,29.74,NW,320,2.0,5.0,100,0.00,,,0.00,VWS V14.01,2014-01-14 00:05:00,
2014-01-13 18:10:00,45.1,45.1,29.74,NW,320,1.0,5.0,100,0.00,,,0.00,VWS V14.01,2014-01-14 00:10:00,
2014-01-13 18:15:00,44.8,44.8,29.74,NW,320,0.0,5.0,100,0.00,,,0.00,VWS V14.01,2014-01-14 00:15:00,
2014-01-13 18:20:00,44.3,44.3,29.75,NW,320,0.0,1.0,100,0.00,,,0.00,VWS V14.01,2014-01-14 00:20:00,
2014-01-13 18:25:00,43.9,43.9,29.75,NW,320,0.0,2.0,100,0.00,,,0.00,VWS V14.01,2014-01-14 00:25:00,
2014-01-13 18:30:00,43.9,43.9,29.75,NW,320,0.0,2.0,100,0.00,,,0.00,VWS V14.01,2014-01-14 00:30:00,
2014-01-13 18:35:00,44.1,44.1,29.75,NW,320,2.0,2.0,100,0.00,,,0.00,VWS V14.01,2014-01-14 00:35:00,
2014-01-13 18:40:00,44.1,44.1,29.75,NW,320,2.0,2.0,100,0.00,,,0.00,VWS V14.01,2014-01-14 00:40:00,
2014-01-13 18:45:00,43.9,43.9,29.75,NW,320,0.0,2.0,100,0.00,,,0.00,VWS V14.01,2014-01-14 00:45:00,
2014-01-13 18:50:00,43.5,43.5,29.75,NW,320,3.0,3.0,100,0.00,,,0.00,VWS V14.01,2014-01-14 00:50:00,
2014-01-13 18:55:00,42.6,42.6,29.75,NW,320,0.0,3.0,100,0.00,,,0.00,VWS V14.01,2014-01-14 00:55:00,
2014-01-13 19:00:00,42.2,42.2,29.75,NW,320,0.0,3.0,100,0.00,,,0.00,VWS V14.01,2014-01-14 01:00:00,
2014-01-13 19:05:00,41.9,41.9,29.75,NW,319,3.0,4.0,100,0.00,,,0.00,VWS V14.01,2014-01-14 01:05:00,
2014-01-13 19:10:00,41.8,41.8,29.75,NW,319,2.0,5.0,100,0.00,,,0.00,VWS V14.01,2014-01-14 01:10:00,
2014-01-13 19:15:00,41.3,41.3,29.75,NW,319,2.0,5.0,100,0.00,,,0.00,VWS V14.01,2014-01-14 01:15:00,
2014-01-13 19:20:00,41.1,41.1,29.75,NW,319,5.0,5.0,100,0.00,,,0.00,VWS V14.01,2014-01-14 01:20:00,
2014-01-13 19:25:00,40.8,40.8,29.75,NW,319,2.0,5.0,100,0.00,,,0.00,VWS V14.01,2014-01-14 01:25:00,
2014-01-13 19:30:00,40.8,40.8,29.75,NW,319,2.0,5.0,100,0.00,,,0.00,VWS V14.01,2014-01-14 01:30:00,
2014-01-13 19:35:00,40.6,40.6,29.76,NW,319,4.0,5.0,100,0.00,,,0.00,VWS V14.01,2014-01-14 01:35:00,
2014-01-13 19:40:00,40.5,40.5,29.76,NW,319,3.0,5.0,100,0.00,,,0.00,VWS V14.01,2014-01-14 01:40:00,
2014-01-13 19:45:00,40.8,40.8,29.76,NW,319,2.0,5.0,100,0.00,,,0.00,VWS V14.01,2014-01-14 01:45:00,
2014-01-13 19:50:00,41.1,41.1,29.76,NW,319,3.0,4.0,100,0.00,,,0.00,VWS V14.01,2014-01-14 01:50:00,
2014-01-13 19:55:00,41.2,41.2,29.76,NW,319,2.0,4.0,100,0.00,,,0.00,VWS V14.01,2014-01-14 01:55:00,
2014-01-13 20:00:00,40.9,40.9,29.76,NW,319,2.0,5.0,100,0.00,,,0.00,VWS V14.01,2014-01-14 02:00:00,
2014-01-13 20:05:00,40.5,40.5,29.76,NW,319,0.0,2.0,100,0.00,,,0.00,VWS V14.01,2014-01-14 02:05:00,
2014-01-13 20:10:00,40.3,40.3,29.76,NW,319,0.0,3.0,100,0.00,,,0.00,VWS V14.01,2014-01-14 02:10:00,
2014-01-13 20:15:00,40.5,40.5,29.76,NW,319,1.0,3.0,100,0.00,,,0.00,VWS V14.01,2014-01-14 02:15:00,
2014-01-13 20:20:00,40.8,40.8,29.76,NW,319,1.0,1.0,100,0.00,,,0.00,VWS V14.01,2014-01-14 02:20:00,
2014-01-13 20:25:00,41.2,41.2,29.76,NW,319,2.0,3.0,100,0.00,,,0.00,VWS V14.01,2014-01-14 02:25:00,
2014-01-13 20:30:00,41.6,41.6,29.76,NW,319,1.0,5.0,100,0.00,,,0.00,VWS V14.01,2014-01-14 02:30:00,
2014-01-13 20:35:00,41.8,41.8,29.77,NW,319,2.0,2.0,100,0.00,,,0.00,VWS V14.01,2014-01-14 02:35:00,
2014-01-13 20:40:00,41.6,41.6,29.77,NW,319,2.0,3.0,100,0.00,,,0.00,VWS V14.01,2014-01-14 02:40:00,
2014-01-13 20:45:00,41.5,41.5,29.77,NW,319,2.0,3.0,100,0.00,,,0.00,VWS V14.01,2014-01-14 02:45:00,
2014-01-13 20:50:00,41.2,41.2,29.77,NW,319,2.0,2.0,100,0.00,,,0.00,VWS V14.01,2014-01-14 02:50:00,
2014-01-13 20:55:00,40.9,40.9,29.77,NW,319,0.0,3.0,100,0.00,,,0.00,VWS V14.01,2014-01-14 02:55:00,
2014-01-13 21:00:00,40.5,40.5,29.77,NW,319,1.0,3.0,100,0.00,,,0.00,VWS V14.01,2014-01-14 03:00:00,
2014-01-13 21:05:00,42.1,42.1,29.78,WSW,243,2.0,12.0,100,0.00,,,0.00,VWS V14.01,2014-01-14 03:05:00,
2014-01-13 21:10:00,42.3,42.3,29.78,WSW,243,0.0,12.0,100,0.00,,,0.00,VWS V14.01,2014-01-14 03:10:00,
2014-01-13 21:15:00,42.1,42.1,29.78,NNW,343,0.0,12.0,100,0.00,,,0.00,VWS V14.01,2014-01-14 03:15:00,
2014-01-13 21:20:00,42.3,42.3,29.74,NNW,342,0.0,0.0,100,0.00,,,0.00,VWS V14.01,2014-01-14 03:20:00,
2014-01-13 21:25:00,42.3,42.3,29.74,West,281,4.0,5.0,100,0.00,,,0.00,VWS V14.01,2014-01-14 03:25:00,
2014-01-13 21:30:00,42.2,42.2,29.74,West,281,0.0,5.0,100,0.00,,,0.00,VWS V14.01,2014-01-14 03:30:00,
2014-01-13 21:35:00,42.5,42.5,29.74,West,281,2.0,2.0,100,0.00,,,0.00,VWS V14.01,2014-01-14 03:35:00,
2014-01-13 21:40:00,42.5,42.5,29.74,West,281,0.0,5.0,100,0.00,,,0.00,VWS V14.01,2014-01-14 03:40:00,
2014-01-13 21:45:00,42.3,42.3,29.74,West,281,0.0,5.0,100,0.00,,,0.00,VWS V14.01,2014-01-14 03:45:00,
2014-01-13 21:50:00,42.2,42.2,29.76,WNW,295,2.0,2.0,100,0.00,,,0.00,VWS V14.01,2014-01-14 03:50:00,
2014-01-13 21:55:00,43.1,43.1,29.76,NW,305,5.0,5.0,100,0.00,,,0.00,VWS V14.01,2014-01-14 03:55:00,
2014-01-13 22:00:00,43.8,43.8,29.76,NW,305,2.0,5.0,100,0.00,,,0.00,VWS V14.01,2014-01-14 04:00:00,
2014-01-13 22:05:00,44.2,44.2,29.75,NW,305,2.0,3.0,100,0.00,,,0.00,VWS V14.01,2014-01-14 04:05:00,
2014-01-13 22:10:00,43.6,43.6,29.75,WNW,301,2.0,6.0,100,0.00,,,0.00,VWS V14.01,2014-01-14 04:10:00,
2014-01-13 22:15:00,42.3,42.3,29.75,WNW,301,3.0,6.0,100,0.00,,,0.00,VWS V14.01,2014-01-14 04:15:00,
2014-01-13 22:20:00,41.3,41.3,29.73,WNW,301,0.0,2.0,100,0.00,,,0.00,VWS V14.01,2014-01-14 04:20:00,
2014-01-13 22:25:00,41.1,41.1,29.73,WNW,301,0.0,2.0,100,0.00,,,0.00,VWS V14.01,2014-01-14 04:25:00,
2014-01-13 22:30:00,40.9,40.9,29.73,WNW,301,0.0,2.0,100,0.00,,,0.00,VWS V14.01,2014-01-14 04:30:00,
2014-01-13 22:35:00,41.3,41.3,29.74,WNW,299,2.0,4.0,100,0.00,,,0.00,VWS V14.01,2014-01-14 04:35:00,
2014-01-13 22:40:00,42.2,42.2,29.74,WNW,282,2.0,7.0,100,0.00,,,0.00,VWS V14.01,2014-01-14 04:40:00,
2014-01-13 22:45:00,43.1,43.1,29.74,WNW,295,7.0,7.0,100,0.00,,,0.00,VWS V14.01,2014-01-14 04:45:00,
2014-01-13 22:50:00,43.5,43.5,29.74,WNW,298,1.0,5.0,100,0.00,,,0.00,VWS V14.01,2014-01-14 04:50:00,
2014-01-13 22:55:00,43.8,43.8,29.74,WNW,298,2.0,5.0,100,0.00,,,0.00,VWS V14.01,2014-01-14 04:55:00,
2014-01-13 23:00:00,44.3,44.3,29.74,WNW,302,3.0,5.0,100,0.00,,,0.00,VWS V14.01,2014-01-14 05:00:00,
2014-01-13 23:01:00,44.3,44.3,29.74,WNW,302,3.0,5.0,100,0.00,,,0.00,VWS V14.01,2014-01-14 05:01:00,
2014-01-13 23:06:00,44.8,44.8,29.73,NW,306,0.0,4.0,100,0.00,,,0.00,VWS V14.01,2014-01-14 05:06:00,
2014-01-13 23:11:00,45.1,45.1,29.73,NNW,343,2.0,5.0,100,0.00,,,0.00,VWS V14.01,2014-01-14 05:11:00,
2014-01-13 23:16:00,44.9,44.9,29.73,North,350,4.0,7.0,100,0.00,,,0.00,VWS V14.01,2014-01-14 05:16:00,
2014-01-13 23:21:00,44.9,44.9,29.74,North,353,1.0,5.0,100,0.00,,,0.00,VWS V14.01,2014-01-14 05:21:00,
2014-01-13 23:26:00,44.9,44.9,29.74,North,353,3.0,5.0,100,0.00,,,0.00,VWS V14.01,2014-01-14 05:26:00,
2014-01-13 23:35:00,44.9,44.9,29.74,North,353,0.0,0.0,100,0.00,,,0.00,VWS V14.01,2014-01-14 05:35:00,
2014-01-13 23:40:00,44.6,44.6,29.74,North,353,3.0,3.0,100,0.00,,,0.00,VWS V14.01,2014-01-14 05:40:00,
2014-01-13 23:45:00,43.8,43.8,29.74,North,359,5.0,7.0,100,0.00,,,0.00,VWS V14.01,2014-01-14 05:45:00,
2014-01-13 23:50:00,42.8,42.8,29.76,North,359,6.0,7.0,100,0.00,,,0.00,VWS V14.01,2014-01-14 05:50:00,
2014-01-13 23:55:00,42.9,42.9,29.76,North,359,5.0,10.0,100,0.00,,,0.00,VWS V14.01,2014-01-14 05:55:00,